Time,TemperatureF,DewpointF,PressureIn,WindDirection,WindDirectionDegrees,WindSpeedMPH,WindSpeedGustMPH,Humidity,HourlyPrecipIn,Conditions,Clouds,dailyrainin,SoftwareType,DateUTC
2013-04-20 00:01:00,51.4,44.4,29.83,WSW,243,3.0,3.0,77,0.00,,CLR,0.00,VWS V14.00,2013-04-20 04:01:00,
2013-04-20 00:06:00,51.3,43.7,29.83,West,271,0.0,5.0,75,0.00,,CLR,0.00,VWS V14.00,2013-04-20 04:06:00,
2013-04-20 00:11:00,51.2,43.6,29.83,WSW,244,0.0,6.0,75,0.00,,CLR,0.00,VWS V14.00,2013-04-20 04:11:00,
2013-04-20 00:16:00,51.0,43.0,29.84,WSW,244,0.0,6.0,74,0.00,,CLR,0.00,VWS V14.00,2013-04-20 04:16:00,
2013-04-20 00:21:00,50.8,42.8,29.84,WSW,244,2.0,6.0,74,0.00,,CLR,0.00,VWS V14.00,2013-04-20 04:21:00,
2013-04-20 00:26:00,50.6,42.6,29.84,West,261,2.0,6.0,74,0.00,,CLR,0.00,VWS V14.00,2013-04-20 04:26:00,
2013-04-20 00:31:00,50.4,42.4,29.85,WSW,256,2.0,4.0,74,0.00,,CLR,0.00,VWS V14.00,2013-04-20 04:31:00,
2013-04-20 00:36:00,50.2,42.2,29.85,West,269,3.0,5.0,74,0.00,,CLR,0.00,VWS V14.00,2013-04-20 04:36:00,
2013-04-20 00:41:00,50.1,41.8,29.85,WSW,257,2.0,6.0,73,0.00,,CLR,0.00,VWS V14.00,2013-04-20 04:41:00,
2013-04-20 00:46:00,50.0,41.7,29.85,West,264,0.0,6.0,73,0.00,,CLR,0.00,VWS V14.00,2013-04-20 04:46:00,
2013-04-20 00:51:00,49.8,41.5,29.85,West,262,0.0,6.0,73,0.00,,CLR,0.00,VWS V14.00,2013-04-20 04:51:00,
2013-04-20 00:56:00,49.6,41.7,29.85,WNW,282,0.0,6.0,74,0.00,,CLR,0.00,VWS V14.00,2013-04-20 04:56:00,
2013-04-20 01:01:00,49.5,41.6,29.85,West,280,0.0,3.0,74,0.00,,CLR,0.00,VWS V14.00,2013-04-20 05:01:00,
2013-04-20 01:06:00,49.3,41.4,29.85,NW,305,1.0,7.0,74,0.00,,CLR,0.00,VWS V14.00,2013-04-20 05:06:00,
2013-04-20 01:11:00,49.2,41.6,29.85,WNW,289,3.0,7.0,75,0.00,,CLR,0.00,VWS V14.00,2013-04-20 05:11:00,
2013-04-20 01:16:00,49.0,41.4,29.86,WNW,288,3.0,7.0,75,0.00,,CLR,0.00,VWS V14.00,2013-04-20 05:16:00,
2013-04-20 01:21:00,48.9,41.3,29.86,NW,304,0.0,7.0,75,0.00,,CLR,0.00,VWS V14.00,2013-04-20 05:21:00,
2013-04-20 01:26:00,48.8,40.9,29.86,WNW,297,2.0,7.0,74,0.00,,CLR,0.00,VWS V14.00,2013-04-20 05:26:00,
2013-04-20 01:31:00,48.8,41.2,29.86,WNW,300,0.0,1.0,75,0.00,,CLR,0.00,VWS V14.00,2013-04-20 05:31:00,
2013-04-20 01:36:00,48.6,41.0,29.86,WSW,253,0.0,4.0,75,0.00,,CLR,0.00,VWS V14.00,2013-04-20 05:36:00,
2013-04-20 01:41:00,48.5,40.6,29.86,WNW,293,3.0,11.0,74,0.00,,CLR,0.00,VWS V14.00,2013-04-20 05:41:00,
2013-04-20 01:46:00,48.4,40.2,29.86,WNW,298,0.0,11.0,73,0.00,,CLR,0.00,VWS V14.00,2013-04-20 05:46:00,
2013-04-20 01:51:00,48.4,40.2,29.86,West,272,3.0,11.0,73,0.00,,CLR,0.00,VWS V14.00,2013-04-20 05:51:00,
2013-04-20 01:56:00,48.5,40.2,29.86,WNW,297,5.0,11.0,73,0.00,,CLR,0.00,VWS V14.00,2013-04-20 05:56:00,
2013-04-20 02:01:00,48.5,40.6,29.85,WNW,302,0.0,1.0,74,0.00,,CLR,0.00,VWS V14.00,2013-04-20 06:01:00,
2013-04-20 02:06:00,48.4,39.8,29.85,WNW,291,0.0,6.0,72,0.00,,CLR,0.00,VWS V14.00,2013-04-20 06:06:00,
2013-04-20 02:11:00,48.3,39.3,29.85,NW,309,4.0,9.0,71,0.00,,CLR,0.00,VWS V14.00,2013-04-20 06:11:00,
2013-04-20 02:16:00,48.4,39.4,29.86,SW,221,4.0,9.0,71,0.00,,CLR,0.00,VWS V14.00,2013-04-20 06:16:00,
2013-04-20 02:21:00,48.4,39.8,29.86,West,275,3.0,9.0,72,0.00,,CLR,0.00,VWS V14.00,2013-04-20 06:21:00,
2013-04-20 02:26:00,48.4,40.2,29.86,WNW,288,2.0,9.0,73,0.00,,CLR,0.00,VWS V14.00,2013-04-20 06:26:00,
2013-04-20 02:31:00,48.3,39.7,29.86,West,278,2.0,4.0,72,0.00,,CLR,0.00,VWS V14.00,2013-04-20 06:31:00,
2013-04-20 02:36:00,48.1,39.2,29.86,West,267,1.0,5.0,71,0.00,,CLR,0.00,VWS V14.00,2013-04-20 06:36:00,
2013-04-20 02:41:00,48.1,39.5,29.86,West,278,0.0,5.0,72,0.00,,CLR,0.00,VWS V14.00,2013-04-20 06:41:00,
2013-04-20 02:46:00,47.9,39.0,29.86,WSW,254,1.0,6.0,71,0.00,,CLR,0.00,VWS V14.00,2013-04-20 06:46:00,
2013-04-20 02:51:00,47.8,39.2,29.86,NW,307,2.0,7.0,72,0.00,,CLR,0.00,VWS V14.00,2013-04-20 06:51:00,
2013-04-20 02:56:00,47.6,39.7,29.86,WNW,302,2.0,7.0,74,0.00,,CLR,0.00,VWS V14.00,2013-04-20 06:56:00,
2013-04-20 03:01:00,47.4,39.9,29.87,WNW,288,1.0,5.0,75,0.00,,CLR,0.00,VWS V14.00,2013-04-20 07:01:00,
2013-04-20 03:06:00,47.1,39.9,29.87,NW,305,0.0,5.0,76,0.00,,CLR,0.00,VWS V14.00,2013-04-20 07:06:00,
2013-04-20 03:11:00,46.9,40.1,29.87,WNW,301,0.0,5.0,77,0.00,,CLR,0.00,VWS V14.00,2013-04-20 07:11:00,
2013-04-20 03:16:00,46.7,39.5,29.88,WNW,301,0.0,5.0,76,0.00,,CLR,0.00,VWS V14.00,2013-04-20 07:16:00,
2013-04-20 03:21:00,46.6,39.8,29.88,WNW,285,0.0,5.0,77,0.00,,CLR,0.00,VWS V14.00,2013-04-20 07:21:00,
2013-04-20 03:26:00,46.7,38.9,29.88,WNW,285,0.0,5.0,74,0.00,,CLR,0.00,VWS V14.00,2013-04-20 07:26:00,
2013-04-20 03:31:00,46.7,39.9,29.89,WNW,284,0.0,0.0,77,0.00,,CLR,0.00,VWS V14.00,2013-04-20 07:31:00,
2013-04-20 03:36:00,46.5,39.7,29.89,WNW,284,0.0,0.0,77,0.00,,CLR,0.00,VWS V14.00,2013-04-20 07:36:00,
2013-04-20 03:41:00,46.4,38.9,29.89,WNW,285,0.0,0.0,75,0.00,,CLR,0.00,VWS V14.00,2013-04-20 07:41:00,
2013-04-20 03:46:00,46.5,38.7,29.90,WNW,285,0.0,1.0,74,0.00,,CLR,0.00,VWS V14.00,2013-04-20 07:46:00,
2013-04-20 03:51:00,46.7,38.9,29.90,WNW,285,0.0,1.0,74,0.00,,CLR,0.00,VWS V14.00,2013-04-20 07:51:00,
2013-04-20 03:56:00,46.5,38.7,29.90,WNW,285,0.0,1.0,74,0.00,,CLR,0.00,VWS V14.00,2013-04-20 07:56:00,
2013-04-20 04:01:00,46.4,38.6,29.90,WNW,285,0.0,0.0,74,0.00,,CLR,0.00,VWS V14.00,2013-04-20 08:01:00,
2013-04-20 04:06:00,46.3,39.2,29.90,WNW,285,0.0,0.0,76,0.00,,CLR,0.00,VWS V14.00,2013-04-20 08:06:00,
2013-04-20 04:11:00,46.0,38.5,29.90,WNW,284,0.0,0.0,75,0.00,,CLR,0.00,VWS V14.00,2013-04-20 08:11:00,
2013-04-20 04:16:00,45.9,38.8,29.90,WNW,285,0.0,0.0,76,0.00,,CLR,0.00,VWS V14.00,2013-04-20 08:16:00,
2013-04-20 04:21:00,45.7,38.9,29.90,WNW,285,0.0,0.0,77,0.00,,CLR,0.00,VWS V14.00,2013-04-20 08:21:00,
2013-04-20 04:26:00,45.4,39.0,29.90,WNW,284,0.0,0.0,78,0.00,,CLR,0.00,VWS V14.00,2013-04-20 08:26:00,
2013-04-20 04:31:00,45.0,38.9,29.91,WNW,284,0.0,0.0,79,0.00,,CLR,0.00,VWS V14.00,2013-04-20 08:31:00,
2013-04-20 04:36:00,44.7,38.9,29.91,WNW,285,0.0,0.0,80,0.00,,CLR,0.00,VWS V14.00,2013-04-20 08:36:00,
2013-04-20 04:41:00,44.4,39.9,29.91,WNW,285,0.0,0.0,84,0.00,,CLR,0.00,VWS V14.00,2013-04-20 08:41:00,
2013-04-20 04:46:00,44.1,40.2,29.91,WNW,285,0.0,1.0,86,0.00,,CLR,0.00,VWS V14.00,2013-04-20 08:46:00,
2013-04-20 04:51:00,43.7,39.5,29.91,WNW,284,0.0,1.0,85,0.00,,CLR,0.00,VWS V14.00,2013-04-20 08:51:00,
2013-04-20 04:56:00,43.4,39.5,29.91,WNW,285,0.0,1.0,86,0.00,,CLR,0.00,VWS V14.00,2013-04-20 08:56:00,
2013-04-20 05:01:00,43.0,39.1,29.92,NNW,335,0.0,0.0,86,0.00,,CLR,0.00,VWS V14.00,2013-04-20 09:01:00,
2013-04-20 05:06:00,42.7,39.1,29.92,NNW,335,0.0,1.0,87,0.00,,CLR,0.00,VWS V14.00,2013-04-20 09:06:00,
2013-04-20 05:11:00,42.6,39.3,29.92,NNW,335,0.0,1.0,88,0.00,,CLR,0.00,VWS V14.00,2013-04-20 09:11:00,
2013-04-20 05:16:00,42.5,39.2,29.93,NNW,335,0.0,1.0,88,0.00,,CLR,0.00,VWS V14.00,2013-04-20 09:16:00,
2013-04-20 05:21:00,42.3,39.3,29.93,NNW,335,0.0,1.0,89,0.00,,CLR,0.00,VWS V14.00,2013-04-20 09:21:00,
2013-04-20 05:26:00,42.2,39.2,29.93,NNW,335,0.0,1.0,89,0.00,,CLR,0.00,VWS V14.00,2013-04-20 09:26:00,
2013-04-20 05:31:00,42.0,39.0,29.93,NNW,335,0.0,0.0,89,0.00,,CLR,0.00,VWS V14.00,2013-04-20 09:31:00,
2013-04-20 05:36:00,41.9,39.2,29.93,NNW,335,0.0,1.0,90,0.00,,CLR,0.00,VWS V14.00,2013-04-20 09:36:00,
2013-04-20 05:41:00,41.7,39.0,29.93,NNW,335,0.0,1.0,90,0.00,,CLR,0.00,VWS V14.00,2013-04-20 09:41:00,
2013-04-20 05:46:00,41.4,39.0,29.93,NNW,335,0.0,1.0,91,0.00,,CLR,0.00,VWS V14.00,2013-04-20 09:46:00,
2013-04-20 05:51:00,41.1,38.7,29.93,NNW,335,0.0,1.0,91,0.00,,CLR,0.00,VWS V14.00,2013-04-20 09:51:00,
2013-04-20 05:56:00,40.9,37.9,29.93,West,267,0.0,4.0,89,0.00,,CLR,0.00,VWS V14.00,2013-04-20 09:56:00,
2013-04-20 06:01:00,40.8,37.5,29.94,WNW,301,0.0,2.0,88,0.00,,CLR,0.00,VWS V14.00,2013-04-20 10:01:00,
2013-04-20 06:06:00,40.9,37.3,29.94,WNW,300,1.0,3.0,87,0.00,,CLR,0.00,VWS V14.00,2013-04-20 10:06:00,
2013-04-20 06:11:00,40.9,37.0,29.94,WNW,301,0.0,4.0,86,0.00,,CLR,0.00,VWS V14.00,2013-04-20 10:11:00,
2013-04-20 06:16:00,40.9,37.0,29.94,WNW,301,2.0,4.0,86,0.00,,CLR,0.00,VWS V14.00,2013-04-20 10:16:00,
2013-04-20 06:21:00,41.0,37.1,29.94,WNW,301,0.0,4.0,86,0.00,,CLR,0.00,VWS V14.00,2013-04-20 10:21:00,
2013-04-20 06:26:00,40.9,37.3,29.94,WNW,301,0.0,4.0,87,0.00,,CLR,0.00,VWS V14.00,2013-04-20 10:26:00,
2013-04-20 06:31:00,40.8,37.2,29.96,WNW,301,0.0,0.0,87,0.00,,CLR,0.00,VWS V14.00,2013-04-20 10:31:00,
2013-04-20 06:35:00,40.7,37.1,29.96,WNW,301,0.0,1.0,87,0.00,,CLR,0.00,VWS V14.00,2013-04-20 10:35:00,
2013-04-20 06:40:00,40.6,37.0,29.96,WNW,301,0.0,1.0,87,0.00,,CLR,0.00,VWS V14.00,2013-04-20 10:40:00,
2013-04-20 06:45:00,40.5,36.9,29.97,WNW,301,0.0,1.0,87,0.00,,CLR,0.00,VWS V14.00,2013-04-20 10:45:00,
2013-04-20 06:50:00,40.4,36.5,29.97,WNW,301,0.0,1.0,86,0.00,,CLR,0.00,VWS V14.00,2013-04-20 10:50:00,
2013-04-20 06:55:00,40.4,36.3,29.97,WNW,301,0.0,1.0,85,0.00,,CLR,0.00,VWS V14.00,2013-04-20 10:55:00,
2013-04-20 07:00:00,40.7,36.0,29.98,NW,309,0.0,6.0,83,0.00,,CLR,0.00,VWS V14.00,2013-04-20 11:00:00,
2013-04-20 07:05:00,41.0,35.9,29.98,NW,314,1.0,6.0,82,0.00,,CLR,0.00,VWS V14.00,2013-04-20 11:05:00,
2013-04-20 07:10:00,41.0,37.1,29.98,NW,311,0.0,6.0,86,0.00,,CLR,0.00,VWS V14.00,2013-04-20 11:10:00,
2013-04-20 07:15:00,40.9,35.8,29.99,NW,311,3.0,6.0,82,0.00,,CLR,0.00,VWS V14.00,2013-04-20 11:15:00,
2013-04-20 07:20:00,40.9,35.8,29.99,NW,319,0.0,6.0,82,0.00,,CLR,0.00,VWS V14.00,2013-04-20 11:20:00,
2013-04-20 07:25:00,40.9,35.2,29.99,NW,319,0.0,6.0,80,0.00,,CLR,0.00,VWS V14.00,2013-04-20 11:25:00,
2013-04-20 07:30:00,40.9,35.2,30.00,NW,319,0.0,0.0,80,0.00,,CLR,0.00,VWS V14.00,2013-04-20 11:30:00,
2013-04-20 07:35:00,41.0,34.7,30.00,NNW,340,0.0,2.0,78,0.00,,CLR,0.00,VWS V14.00,2013-04-20 11:35:00,
2013-04-20 07:40:00,41.2,33.9,30.00,NNW,335,4.0,4.0,75,0.00,,CLR,0.00,VWS V14.00,2013-04-20 11:40:00,
2013-04-20 07:45:00,41.5,33.8,30.01,NW,315,3.0,5.0,74,0.00,,CLR,0.00,VWS V14.00,2013-04-20 11:45:00,
2013-04-20 07:50:00,41.7,34.0,30.01,NW,306,1.0,6.0,74,0.00,,CLR,0.00,VWS V14.00,2013-04-20 11:50:00,
2013-04-20 07:55:00,41.9,33.9,30.01,NW,316,6.0,6.0,73,0.00,,CLR,0.00,VWS V14.00,2013-04-20 11:55:00,
2013-04-20 08:00:00,42.4,34.4,30.02,NW,309,0.0,3.0,73,0.00,,CLR,0.00,VWS V14.00,2013-04-20 12:00:00,
2013-04-20 08:05:00,42.6,34.6,30.02,NW,304,0.0,5.0,73,0.00,,CLR,0.00,VWS V14.00,2013-04-20 12:05:00,
2013-04-20 08:10:00,42.8,34.8,30.02,WNW,300,1.0,5.0,73,0.00,,CLR,0.00,VWS V14.00,2013-04-20 12:10:00,
2013-04-20 08:15:00,43.2,34.8,30.02,WNW,290,0.0,6.0,72,0.00,,CLR,0.00,VWS V14.00,2013-04-20 12:15:00,
2013-04-20 08:20:00,43.7,34.2,30.02,NNW,343,4.0,9.0,69,0.00,,CLR,0.00,VWS V14.00,2013-04-20 12:20:00,
2013-04-20 08:25:00,44.3,34.0,30.02,WNW,294,3.0,9.0,67,0.00,,CLR,0.00,VWS V14.00,2013-04-20 12:25:00,
2013-04-20 08:30:00,44.8,35.3,30.03,WNW,297,3.0,5.0,69,0.00,,CLR,0.00,VWS V14.00,2013-04-20 12:30:00,
2013-04-20 08:35:00,45.2,33.0,30.03,NW,318,3.0,7.0,62,0.00,,CLR,0.00,VWS V14.00,2013-04-20 12:35:00,
2013-04-20 08:40:00,45.8,32.7,30.03,WNW,285,3.0,11.0,60,0.00,,CLR,0.00,VWS V14.00,2013-04-20 12:40:00,
2013-04-20 08:45:00,46.2,33.9,30.03,North,359,2.0,11.0,62,0.00,,CLR,0.00,VWS V14.00,2013-04-20 12:45:00,
2013-04-20 08:50:00,46.6,33.9,30.03,NW,304,2.0,11.0,61,0.00,,CLR,0.00,VWS V14.00,2013-04-20 12:50:00,
2013-04-20 08:55:00,47.0,33.4,30.03,WNW,288,5.0,12.0,59,0.00,,CLR,0.00,VWS V14.00,2013-04-20 12:55:00,
2013-04-20 09:00:00,47.3,32.4,30.04,WNW,302,3.0,9.0,56,0.00,,CLR,0.00,VWS V14.00,2013-04-20 13:00:00,
2013-04-20 09:05:00,47.6,32.7,30.04,NNW,337,4.0,10.0,56,0.00,,CLR,0.00,VWS V14.00,2013-04-20 13:05:00,
2013-04-20 09:10:00,48.2,35.4,30.04,North,355,10.0,10.0,61,0.00,,CLR,0.00,VWS V14.00,2013-04-20 13:10:00,
2013-04-20 09:15:00,48.7,33.3,30.04,NNW,347,4.0,10.0,55,0.00,,CLR,0.00,VWS V14.00,2013-04-20 13:15:00,
2013-04-20 09:20:00,49.0,33.1,30.04,North,359,3.0,10.0,54,0.00,,CLR,0.00,VWS V14.00,2013-04-20 13:20:00,
2013-04-20 09:25:00,49.3,34.7,30.04,WNW,288,0.0,10.0,57,0.00,,CLR,0.00,VWS V14.00,2013-04-20 13:25:00,
2013-04-20 09:30:00,49.5,33.1,30.05,NW,311,1.0,10.0,53,0.00,,CLR,0.00,VWS V14.00,2013-04-20 13:30:00,
2013-04-20 09:35:00,49.6,33.7,30.05,NNW,344,5.0,11.0,54,0.00,,CLR,0.00,VWS V14.00,2013-04-20 13:35:00,
2013-04-20 09:40:00,49.9,33.9,30.05,WNW,294,10.0,13.0,54,0.00,,CLR,0.00,VWS V14.00,2013-04-20 13:40:00,
2013-04-20 09:45:00,50.0,35.4,30.05,WNW,301,9.0,13.0,57,0.00,,CLR,0.00,VWS V14.00,2013-04-20 13:45:00,
2013-04-20 09:50:00,50.3,33.8,30.05,WNW,293,6.0,13.0,53,0.00,,CLR,0.00,VWS V14.00,2013-04-20 13:50:00,
2013-04-20 09:55:00,50.7,36.5,30.05,West,277,2.0,13.0,58,0.00,,CLR,0.00,VWS V14.00,2013-04-20 13:55:00,
2013-04-20 10:00:00,51.1,34.6,30.06,WNW,284,0.0,5.0,53,0.00,,CLR,0.00,VWS V14.00,2013-04-20 14:00:00,
2013-04-20 10:05:00,51.1,35.0,30.06,WNW,299,1.0,8.0,54,0.00,,CLR,0.00,VWS V14.00,2013-04-20 14:05:00,
2013-04-20 10:10:00,51.2,34.2,30.06,North,350,5.0,10.0,52,0.00,,CLR,0.00,VWS V14.00,2013-04-20 14:10:00,
2013-04-20 10:15:00,51.6,36.0,30.06,NNW,333,4.0,10.0,55,0.00,,CLR,0.00,VWS V14.00,2013-04-20 14:15:00,
2013-04-20 10:20:00,51.8,35.2,30.06,West,281,3.0,10.0,53,0.00,,CLR,0.00,VWS V14.00,2013-04-20 14:20:00,
2013-04-20 10:25:00,52.1,35.5,30.06,West,279,0.0,10.0,53,0.00,,CLR,0.00,VWS V14.00,2013-04-20 14:25:00,
2013-04-20 10:30:00,52.0,35.4,30.07,WNW,293,0.0,0.0,53,0.00,,CLR,0.00,VWS V14.00,2013-04-20 14:30:00,
2013-04-20 10:35:00,52.4,35.3,30.07,West,272,4.0,7.0,52,0.00,,CLR,0.00,VWS V14.00,2013-04-20 14:35:00,
2013-04-20 10:40:00,52.6,36.0,30.07,NW,307,0.0,7.0,53,0.00,,CLR,0.00,VWS V14.00,2013-04-20 14:40:00,
2013-04-20 10:45:00,53.0,35.9,30.07,NW,311,0.0,7.0,52,0.00,,CLR,0.00,VWS V14.00,2013-04-20 14:45:00,
2013-04-20 10:50:00,53.3,36.6,30.07,NNW,342,4.0,7.0,53,0.00,,CLR,0.00,VWS V14.00,2013-04-20 14:50:00,
2013-04-20 10:55:00,53.4,35.7,30.07,North,352,0.0,7.0,51,0.00,,CLR,0.00,VWS V14.00,2013-04-20 14:55:00,
2013-04-20 11:00:00,53.7,36.0,30.07,North,355,0.0,1.0,51,0.00,,CLR,0.00,VWS V14.00,2013-04-20 15:00:00,
2013-04-20 11:05:00,53.7,35.5,30.07,NNW,328,3.0,6.0,50,0.00,,CLR,0.00,VWS V14.00,2013-04-20 15:05:00,
2013-04-20 11:10:00,53.8,37.1,30.07,NW,319,9.0,9.0,53,0.00,,CLR,0.00,VWS V14.00,2013-04-20 15:10:00,
2013-04-20 11:15:00,54.0,37.8,30.07,NNW,343,0.0,10.0,54,0.00,,CLR,0.00,VWS V14.00,2013-04-20 15:15:00,
2013-04-20 11:20:00,54.4,36.2,30.07,NW,318,0.0,10.0,50,0.00,,CLR,0.00,VWS V14.00,2013-04-20 15:20:00,
2013-04-20 11:25:00,54.4,35.1,30.07,WNW,300,0.0,10.0,48,0.00,,CLR,0.00,VWS V14.00,2013-04-20 15:25:00,
2013-04-20 11:30:00,54.4,36.2,30.07,WNW,300,0.0,1.0,50,0.00,,CLR,0.00,VWS V14.00,2013-04-20 15:30:00,
2013-04-20 11:35:00,54.7,35.4,30.07,NW,310,5.0,6.0,48,0.00,,CLR,0.00,VWS V14.00,2013-04-20 15:35:00,
2013-04-20 11:40:00,54.7,35.9,30.07,WNW,300,1.0,7.0,49,0.00,,CLR,0.00,VWS V14.00,2013-04-20 15:40:00,
2013-04-20 11:45:00,54.7,37.4,30.07,West,277,0.0,7.0,52,0.00,,CLR,0.00,VWS V14.00,2013-04-20 15:45:00,
2013-04-20 11:50:00,55.0,36.7,30.07,NW,316,2.0,7.0,50,0.00,,CLR,0.00,VWS V14.00,2013-04-20 15:50:00,
2013-04-20 11:55:00,54.9,36.6,30.07,WNW,298,0.0,7.0,50,0.00,,CLR,0.00,VWS V14.00,2013-04-20 15:55:00,
2013-04-20 12:00:00,55.3,36.5,30.07,NW,315,2.0,4.0,49,0.00,,CLR,0.00,VWS V14.00,2013-04-20 16:00:00,
2013-04-20 12:05:00,55.6,35.7,30.07,NNW,339,1.0,6.0,47,0.00,,CLR,0.00,VWS V14.00,2013-04-20 16:05:00,
2013-04-20 12:10:00,55.5,37.2,30.07,WNW,283,2.0,6.0,50,0.00,,CLR,0.00,VWS V14.00,2013-04-20 16:10:00,
2013-04-20 12:15:00,55.8,35.9,30.07,North,354,3.0,7.0,47,0.00,,CLR,0.00,VWS V14.00,2013-04-20 16:15:00,
2013-04-20 12:20:00,55.8,35.3,30.07,WNW,288,0.0,7.0,46,0.00,,CLR,0.00,VWS V14.00,2013-04-20 16:20:00,
2013-04-20 12:25:00,56.2,37.8,30.07,WNW,293,0.0,7.0,50,0.00,,CLR,0.00,VWS V14.00,2013-04-20 16:25:00,
2013-04-20 12:30:00,56.6,37.7,30.07,NW,319,0.0,4.0,49,0.00,,CLR,0.00,VWS V14.00,2013-04-20 16:30:00,
2013-04-20 12:35:00,57.2,37.7,30.07,NW,323,4.0,4.0,48,0.00,,CLR,0.00,VWS V14.00,2013-04-20 16:35:00,
2013-04-20 12:40:00,57.3,37.3,30.07,NW,311,4.0,11.0,47,0.00,,CLR,0.00,VWS V14.00,2013-04-20 16:40:00,
2013-04-20 12:45:00,57.0,35.3,30.07,NNE,24,0.0,11.0,44,0.00,,CLR,0.00,VWS V14.00,2013-04-20 16:45:00,
2013-04-20 12:50:00,56.9,36.9,30.07,ENE,75,0.0,11.0,47,0.00,,CLR,0.00,VWS V14.00,2013-04-20 16:50:00,
2013-04-20 12:55:00,57.9,37.3,30.07,NW,326,5.0,11.0,46,0.00,,CLR,0.00,VWS V14.00,2013-04-20 16:55:00,
2013-04-20 13:00:00,57.8,37.7,30.07,North,349,3.0,4.0,47,0.00,,CLR,0.00,VWS V14.00,2013-04-20 17:00:00,
2013-04-20 13:05:00,57.5,36.9,30.07,North,349,0.0,4.0,46,0.00,,CLR,0.00,VWS V14.00,2013-04-20 17:05:00,
2013-04-20 13:10:00,57.7,36.5,30.07,WNW,290,0.0,5.0,45,0.00,,CLR,0.00,VWS V14.00,2013-04-20 17:10:00,
2013-04-20 13:15:00,57.8,36.6,30.06,WNW,290,0.0,5.0,45,0.00,,CLR,0.00,VWS V14.00,2013-04-20 17:15:00,
2013-04-20 13:20:00,57.9,37.8,30.06,SSW,204,0.0,5.0,47,0.00,,CLR,0.00,VWS V14.00,2013-04-20 17:20:00,
2013-04-20 13:25:00,58.4,37.2,30.06,NNW,342,0.0,5.0,45,0.00,,CLR,0.00,VWS V14.00,2013-04-20 17:25:00,
2013-04-20 13:30:00,58.7,37.4,30.05,NW,311,4.0,4.0,45,0.00,,CLR,0.00,VWS V14.00,2013-04-20 17:30:00,
2013-04-20 13:35:00,58.6,36.2,30.05,NE,37,1.0,4.0,43,0.00,,CLR,0.00,VWS V14.00,2013-04-20 17:35:00,
2013-04-20 13:40:00,58.5,36.1,30.05,SSW,211,0.0,5.0,43,0.00,,CLR,0.00,VWS V14.00,2013-04-20 17:40:00,
2013-04-20 13:45:00,58.4,36.0,30.05,WSW,252,0.0,5.0,43,0.00,,CLR,0.00,VWS V14.00,2013-04-20 17:45:00,
2013-04-20 13:50:00,58.8,37.5,30.05,NNE,23,0.0,5.0,45,0.00,,CLR,0.00,VWS V14.00,2013-04-20 17:50:00,
2013-04-20 13:55:00,59.2,36.7,30.05,NW,323,0.0,5.0,43,0.00,,CLR,0.00,VWS V14.00,2013-04-20 17:55:00,
2013-04-20 14:00:00,59.9,39.1,30.05,WNW,297,4.0,5.0,46,0.00,,CLR,0.00,VWS V14.00,2013-04-20 18:00:00,
2013-04-20 14:05:00,60.2,37.0,30.05,SW,230,1.0,7.0,42,0.00,,CLR,0.00,VWS V14.00,2013-04-20 18:05:00,
2013-04-20 14:10:00,60.1,38.1,30.05,NW,304,0.0,7.0,44,0.00,,CLR,0.00,VWS V14.00,2013-04-20 18:10:00,
2013-04-20 14:15:00,59.9,36.2,30.05,WNW,288,0.0,7.0,41,0.00,,CLR,0.00,VWS V14.00,2013-04-20 18:15:00,
2013-04-20 14:20:00,59.8,39.0,30.05,ESE,119,1.0,7.0,46,0.00,,CLR,0.00,VWS V14.00,2013-04-20 18:20:00,
2013-04-20 14:25:00,60.6,40.3,30.05,WNW,292,0.0,7.0,47,0.00,,CLR,0.00,VWS V14.00,2013-04-20 18:25:00,
2013-04-20 14:30:00,60.7,36.3,30.05,NNW,330,4.0,5.0,40,0.00,,CLR,0.00,VWS V14.00,2013-04-20 18:30:00,
2013-04-20 14:35:00,60.6,36.8,30.05,ENE,68,1.0,5.0,41,0.00,,CLR,0.00,VWS V14.00,2013-04-20 18:35:00,
2013-04-20 14:40:00,61.0,37.8,30.05,ESE,118,0.0,5.0,42,0.00,,CLR,0.00,VWS V14.00,2013-04-20 18:40:00,
2013-04-20 14:45:00,61.4,37.5,30.05,SW,231,1.0,5.0,41,0.00,,CLR,0.00,VWS V14.00,2013-04-20 18:45:00,
2013-04-20 14:50:00,61.6,37.1,30.05,WSW,243,1.0,5.0,40,0.00,,CLR,0.00,VWS V14.00,2013-04-20 18:50:00,
2013-04-20 14:55:00,61.5,37.6,30.05,SW,219,0.0,5.0,41,0.00,,CLR,0.00,VWS V14.00,2013-04-20 18:55:00,
2013-04-20 15:00:00,61.4,37.5,30.05,South,188,0.0,1.0,41,0.00,,CLR,0.00,VWS V14.00,2013-04-20 19:00:00,
2013-04-20 15:05:00,61.3,39.8,30.05,ESE,108,0.0,5.0,45,0.00,,CLR,0.00,VWS V14.00,2013-04-20 19:05:00,
2013-04-20 15:10:00,62.3,39.5,30.05,North,8,1.0,5.0,43,0.00,,CLR,0.00,VWS V14.00,2013-04-20 19:10:00,
2013-04-20 15:15:00,62.7,38.7,30.04,WNW,302,2.0,5.0,41,0.00,,CLR,0.00,VWS V14.00,2013-04-20 19:15:00,
2013-04-20 15:20:00,62.3,36.4,30.04,NW,308,0.0,7.0,38,0.00,,CLR,0.00,VWS V14.00,2013-04-20 19:20:00,
2013-04-20 15:25:00,62.1,39.4,30.04,NW,309,1.0,7.0,43,0.00,,CLR,0.00,VWS V14.00,2013-04-20 19:25:00,
2013-04-20 15:30:00,62.2,40.6,30.03,NNW,344,3.0,4.0,45,0.00,,CLR,0.00,VWS V14.00,2013-04-20 19:30:00,
2013-04-20 15:35:00,62.5,36.6,30.03,NE,46,0.0,11.0,38,0.00,,CLR,0.00,VWS V14.00,2013-04-20 19:35:00,
2013-04-20 15:40:00,62.8,38.1,30.03,ENE,60,1.0,11.0,40,0.00,,CLR,0.00,VWS V14.00,2013-04-20 19:40:00,
2013-04-20 15:45:00,63.0,38.3,30.03,WNW,297,2.0,11.0,40,0.00,,CLR,0.00,VWS V14.00,2013-04-20 19:45:00,
2013-04-20 15:50:00,62.4,37.8,30.03,WNW,297,3.0,11.0,40,0.00,,CLR,0.00,VWS V14.00,2013-04-20 19:50:00,
2013-04-20 15:55:00,62.5,37.9,30.03,North,10,4.0,11.0,40,0.00,,CLR,0.00,VWS V14.00,2013-04-20 19:55:00,
2013-04-20 16:00:00,62.6,36.7,30.03,NNW,338,0.0,0.0,38,0.00,,CLR,0.00,VWS V14.00,2013-04-20 20:00:00,
2013-04-20 16:05:00,62.7,39.3,30.03,NNW,342,2.0,10.0,42,0.00,,CLR,0.00,VWS V14.00,2013-04-20 20:05:00,
2013-04-20 16:10:00,62.8,38.1,30.03,WNW,298,0.0,10.0,40,0.00,,CLR,0.00,VWS V14.00,2013-04-20 20:10:00,
2013-04-20 16:15:00,62.9,40.1,30.03,South,191,0.0,10.0,43,0.00,,CLR,0.00,VWS V14.00,2013-04-20 20:15:00,
2013-04-20 16:20:00,63.1,39.7,30.03,SSW,194,0.0,10.0,42,0.00,,CLR,0.00,VWS V14.00,2013-04-20 20:20:00,
2013-04-20 16:25:00,63.2,37.9,30.03,NW,325,0.0,10.0,39,0.00,,CLR,0.00,VWS V14.00,2013-04-20 20:25:00,
2013-04-20 16:30:00,63.4,41.1,30.02,South,180,3.0,5.0,44,0.00,,CLR,0.00,VWS V14.00,2013-04-20 20:30:00,
2013-04-20 16:35:00,63.3,37.3,30.02,WNW,289,1.0,10.0,38,0.00,,CLR,0.00,VWS V14.00,2013-04-20 20:35:00,
2013-04-20 16:40:00,62.9,37.6,30.02,WNW,301,0.0,10.0,39,0.00,,CLR,0.00,VWS V14.00,2013-04-20 20:40:00,
2013-04-20 16:45:00,62.7,40.5,30.02,NW,312,3.0,10.0,44,0.00,,CLR,0.00,VWS V14.00,2013-04-20 20:45:00,
2013-04-20 16:50:00,62.8,37.5,30.02,NW,308,1.0,10.0,39,0.00,,CLR,0.00,VWS V14.00,2013-04-20 20:50:00,
2013-04-20 16:55:00,62.7,38.0,30.02,North,0,0.0,10.0,40,0.00,,CLR,0.00,VWS V14.00,2013-04-20 20:55:00,
2013-04-20 17:00:00,62.9,38.2,30.03,NW,307,1.0,3.0,40,0.00,,CLR,0.00,VWS V14.00,2013-04-20 21:00:00,
2013-04-20 17:05:00,63.1,39.0,30.03,WNW,284,0.0,4.0,41,0.00,,CLR,0.00,VWS V14.00,2013-04-20 21:05:00,
2013-04-20 17:10:00,63.1,37.8,30.03,North,0,0.0,5.0,39,0.00,,CLR,0.00,VWS V14.00,2013-04-20 21:10:00,
2013-04-20 17:15:00,63.2,38.5,30.03,NNE,23,0.0,5.0,40,0.00,,CLR,0.00,VWS V14.00,2013-04-20 21:15:00,
2013-04-20 17:20:00,63.4,39.9,30.03,WSW,242,1.0,5.0,42,0.00,,CLR,0.00,VWS V14.00,2013-04-20 21:20:00,
2013-04-20 17:25:00,63.6,40.7,30.03,SSW,193,0.0,5.0,43,0.00,,CLR,0.00,VWS V14.00,2013-04-20 21:25:00,
2013-04-20 17:30:00,64.0,38.6,30.03,North,0,0.0,2.0,39,0.00,,CLR,0.00,VWS V14.00,2013-04-20 21:30:00,
2013-04-20 17:35:00,64.3,39.5,30.03,WNW,297,0.0,5.0,40,0.00,,CLR,0.00,VWS V14.00,2013-04-20 21:35:00,
2013-04-20 17:40:00,64.5,39.0,30.03,WNW,297,1.0,5.0,39,0.00,,CLR,0.00,VWS V14.00,2013-04-20 21:40:00,
2013-04-20 17:45:00,64.4,39.6,30.03,NNW,335,3.0,6.0,40,0.00,,CLR,0.00,VWS V14.00,2013-04-20 21:45:00,
2013-04-20 17:50:00,64.2,38.8,30.03,NNW,345,0.0,6.0,39,0.00,,CLR,0.00,VWS V14.00,2013-04-20 21:50:00,
2013-04-20 17:55:00,64.3,38.8,30.03,NW,308,0.0,6.0,39,0.00,,CLR,0.00,VWS V14.00,2013-04-20 21:55:00,
2013-04-20 18:00:00,64.4,40.8,30.03,WNW,299,5.0,5.0,42,0.00,,CLR,0.00,VWS V14.00,2013-04-20 22:00:00,
2013-04-20 18:05:00,64.4,38.3,30.03,NNW,331,0.0,7.0,38,0.00,,CLR,0.00,VWS V14.00,2013-04-20 22:05:00,
2013-04-20 18:10:00,64.2,38.8,30.03,NNW,328,0.0,7.0,39,0.00,,CLR,0.00,VWS V14.00,2013-04-20 22:10:00,
2013-04-20 18:15:00,64.1,38.7,30.04,NNW,328,0.0,7.0,39,0.00,,CLR,0.00,VWS V14.00,2013-04-20 22:15:00,
2013-04-20 18:20:00,64.1,39.3,30.04,NW,321,0.0,7.0,40,0.00,,CLR,0.00,VWS V14.00,2013-04-20 22:20:00,
2013-04-20 18:25:00,64.1,39.9,30.04,NW,311,0.0,7.0,41,0.00,,CLR,0.00,VWS V14.00,2013-04-20 22:25:00,
2013-04-20 18:30:00,64.3,41.3,30.03,NW,311,0.0,0.0,43,0.00,,CLR,0.00,VWS V14.00,2013-04-20 22:30:00,
2013-04-20 18:35:00,64.4,40.2,30.03,WNW,300,0.0,1.0,41,0.00,,CLR,0.00,VWS V14.00,2013-04-20 22:35:00,
2013-04-20 18:40:00,64.1,41.8,30.03,WNW,300,0.0,1.0,44,0.00,,CLR,0.00,VWS V14.00,2013-04-20 22:40:00,
2013-04-20 18:45:00,63.5,40.0,30.04,WNW,300,0.0,1.0,42,0.00,,CLR,0.00,VWS V14.00,2013-04-20 22:45:00,
2013-04-20 18:50:00,63.3,39.8,30.04,WNW,301,0.0,1.0,42,0.00,,CLR,0.00,VWS V14.00,2013-04-20 22:50:00,
2013-04-20 18:55:00,63.3,39.8,30.04,North,359,0.0,4.0,42,0.00,,CLR,0.00,VWS V14.00,2013-04-20 22:55:00,
2013-04-20 19:00:00,63.1,41.4,30.04,North,359,0.0,0.0,45,0.00,,CLR,0.00,VWS V14.00,2013-04-20 23:00:00,
2013-04-20 19:05:00,62.9,38.9,30.04,North,359,0.0,0.0,41,0.00,,CLR,0.00,VWS V14.00,2013-04-20 23:05:00,
2013-04-20 19:10:00,62.4,39.6,30.04,North,359,0.0,0.0,43,0.00,,CLR,0.00,VWS V14.00,2013-04-20 23:10:00,
2013-04-20 19:15:00,62.1,39.4,30.05,North,359,0.0,0.0,43,0.00,,CLR,0.00,VWS V14.00,2013-04-20 23:15:00,
2013-04-20 19:20:00,61.9,39.2,30.05,North,359,0.0,1.0,43,0.00,,CLR,0.00,VWS V14.00,2013-04-20 23:20:00,
2013-04-20 19:25:00,61.7,40.2,30.05,North,359,0.0,1.0,45,0.00,,CLR,0.00,VWS V14.00,2013-04-20 23:25:00,
2013-04-20 19:30:00,61.4,40.5,30.05,North,359,0.0,0.0,46,0.00,,CLR,0.00,VWS V14.00,2013-04-20 23:30:00,
2013-04-20 19:35:00,61.2,39.1,30.05,North,359,0.0,0.0,44,0.00,,CLR,0.00,VWS V14.00,2013-04-20 23:35:00,
2013-04-20 19:40:00,61.1,39.6,30.05,North,359,0.0,0.0,45,0.00,,CLR,0.00,VWS V14.00,2013-04-20 23:40:00,
2013-04-20 19:45:00,61.0,39.0,30.06,North,359,0.0,1.0,44,0.00,,CLR,0.00,VWS V14.00,2013-04-20 23:45:00,
2013-04-20 19:50:00,60.8,39.3,30.06,North,359,0.0,1.0,45,0.00,,CLR,0.00,VWS V14.00,2013-04-20 23:50:00,
2013-04-20 19:55:00,60.4,39.0,30.06,North,359,0.0,1.0,45,0.00,,CLR,0.00,VWS V14.00,2013-04-20 23:55:00,
2013-04-20 20:00:00,60.2,38.8,30.07,North,359,0.0,0.0,45,0.00,,CLR,0.00,VWS V14.00,2013-04-21 00:00:00,
2013-04-20 20:05:00,59.9,39.1,30.07,North,359,0.0,0.0,46,0.00,,CLR,0.00,VWS V14.00,2013-04-21 00:05:00,
2013-04-20 20:10:00,59.6,39.4,30.07,North,359,0.0,0.0,47,0.00,,CLR,0.00,VWS V14.00,2013-04-21 00:10:00,
2013-04-20 20:15:00,59.0,40.9,30.08,North,359,0.0,1.0,51,0.00,,CLR,0.00,VWS V14.00,2013-04-21 00:15:00,
2013-04-20 20:20:00,58.6,40.0,30.08,North,359,0.0,1.0,50,0.00,,CLR,0.00,VWS V14.00,2013-04-21 00:20:00,
2013-04-20 20:25:00,58.1,41.1,30.08,North,359,0.0,1.0,53,0.00,,CLR,0.00,VWS V14.00,2013-04-21 00:25:00,
2013-04-20 20:30:00,57.6,42.0,30.09,North,359,0.0,0.0,56,0.00,,CLR,0.00,VWS V14.00,2013-04-21 00:30:00,
2013-04-20 20:35:00,57.2,41.2,30.09,North,359,0.0,1.0,55,0.00,,CLR,0.00,VWS V14.00,2013-04-21 00:35:00,
2013-04-20 20:40:00,56.8,40.8,30.09,North,359,1.0,1.0,55,0.00,,CLR,0.00,VWS V14.00,2013-04-21 00:40:00,
2013-04-20 20:45:00,56.6,38.7,30.10,North,359,0.0,1.0,51,0.00,,CLR,0.00,VWS V14.00,2013-04-21 00:45:00,
2013-04-20 20:50:00,56.6,40.2,30.10,North,359,0.0,1.0,54,0.00,,CLR,0.00,VWS V14.00,2013-04-21 00:50:00,
2013-04-20 20:55:00,56.3,39.4,30.10,North,359,0.0,1.0,53,0.00,,CLR,0.00,VWS V14.00,2013-04-21 00:55:00,
2013-04-20 21:00:00,56.1,38.2,30.11,North,359,0.0,0.0,51,0.00,,CLR,0.00,VWS V14.00,2013-04-21 01:00:00,
2013-04-20 21:05:00,55.9,40.0,30.11,North,359,0.0,1.0,55,0.00,,CLR,0.00,VWS V14.00,2013-04-21 01:05:00,
2013-04-20 21:10:00,55.5,37.2,30.11,NW,309,2.0,6.0,50,0.00,,CLR,0.00,VWS V14.00,2013-04-21 01:10:00,
2013-04-20 21:15:00,55.4,40.0,30.12,NW,309,0.0,6.0,56,0.00,,CLR,0.00,VWS V14.00,2013-04-21 01:15:00,
2013-04-20 21:20:00,55.2,39.3,30.12,NW,309,0.0,6.0,55,0.00,,CLR,0.00,VWS V14.00,2013-04-21 01:20:00,
2013-04-20 21:25:00,54.9,40.0,30.12,NW,309,0.0,6.0,57,0.00,,CLR,0.00,VWS V14.00,2013-04-21 01:25:00,
2013-04-20 21:30:00,54.4,40.4,30.13,NW,309,0.0,0.0,59,0.00,,CLR,0.00,VWS V14.00,2013-04-21 01:30:00,
2013-04-20 21:35:00,54.0,40.4,30.13,NW,309,0.0,0.0,60,0.00,,CLR,0.00,VWS V14.00,2013-04-21 01:35:00,
2013-04-20 21:40:00,53.1,42.5,30.13,NW,309,0.0,0.0,67,0.00,,CLR,0.00,VWS V14.00,2013-04-21 01:40:00,
2013-04-20 21:45:00,52.3,40.1,30.14,NW,309,0.0,1.0,63,0.00,,CLR,0.00,VWS V14.00,2013-04-21 01:45:00,
2013-04-20 21:50:00,51.8,42.0,30.14,NW,309,0.0,1.0,69,0.00,,CLR,0.00,VWS V14.00,2013-04-21 01:50:00,
2013-04-20 21:55:00,51.4,38.4,30.14,NW,309,0.0,2.0,61,0.00,,CLR,0.00,VWS V14.00,2013-04-21 01:55:00,
2013-04-20 22:00:00,51.3,38.3,30.14,NW,309,0.0,0.0,61,0.00,,CLR,0.00,VWS V14.00,2013-04-21 02:00:00,
2013-04-20 22:05:00,51.2,39.8,30.14,NW,309,0.0,1.0,65,0.00,,CLR,0.00,VWS V14.00,2013-04-21 02:05:00,
2013-04-20 22:10:00,50.8,39.9,30.14,NW,309,0.0,1.0,66,0.00,,CLR,0.00,VWS V14.00,2013-04-21 02:10:00,
2013-04-20 22:15:00,50.4,38.7,30.15,NW,309,0.0,1.0,64,0.00,,CLR,0.00,VWS V14.00,2013-04-21 02:15:00,
2013-04-20 22:20:00,50.2,38.5,30.15,NW,309,0.0,1.0,64,0.00,,CLR,0.00,VWS V14.00,2013-04-21 02:20:00,
2013-04-20 22:25:00,50.1,38.8,30.15,NW,309,0.0,1.0,65,0.00,,CLR,0.00,VWS V14.00,2013-04-21 02:25:00,
2013-04-20 22:30:00,50.0,40.2,30.15,NW,309,0.0,1.0,69,0.00,,CLR,0.00,VWS V14.00,2013-04-21 02:30:00,
2013-04-20 22:35:00,49.6,39.9,30.15,NW,309,0.0,1.0,69,0.00,,CLR,0.00,VWS V14.00,2013-04-21 02:35:00,
2013-04-20 22:40:00,49.3,38.8,30.15,NW,309,0.0,1.0,67,0.00,,CLR,0.00,VWS V14.00,2013-04-21 02:40:00,
2013-04-20 22:45:00,49.2,40.2,30.16,NW,309,0.0,1.0,71,0.00,,CLR,0.00,VWS V14.00,2013-04-21 02:45:00,
2013-04-20 22:50:00,48.7,39.4,30.16,NW,309,0.0,1.0,70,0.00,,CLR,0.00,VWS V14.00,2013-04-21 02:50:00,
2013-04-20 22:55:00,48.4,40.5,30.16,NW,309,0.0,1.0,74,0.00,,CLR,0.00,VWS V14.00,2013-04-21 02:55:00,
2013-04-20 23:00:00,48.0,40.8,30.16,NW,309,0.0,0.0,76,0.00,,CLR,0.00,VWS V14.00,2013-04-21 03:00:00,
2013-04-20 23:05:00,47.6,38.7,30.16,NW,309,0.0,0.0,71,0.00,,CLR,0.00,VWS V14.00,2013-04-21 03:05:00,
2013-04-20 23:10:00,47.2,40.0,30.16,NW,309,0.0,0.0,76,0.00,,CLR,0.00,VWS V14.00,2013-04-21 03:10:00,
2013-04-20 23:15:00,46.9,40.4,30.16,NW,309,0.0,0.0,78,0.00,,CLR,0.00,VWS V14.00,2013-04-21 03:15:00,
2013-04-20 23:20:00,46.4,40.2,30.16,NW,309,0.0,0.0,79,0.00,,CLR,0.00,VWS V14.00,2013-04-21 03:20:00,
2013-04-20 23:25:00,45.9,40.4,30.16,NW,309,0.0,0.0,81,0.00,,CLR,0.00,VWS V14.00,2013-04-21 03:25:00,
2013-04-20 23:30:00,45.6,39.8,30.16,NW,309,0.0,0.0,80,0.00,,CLR,0.00,VWS V14.00,2013-04-21 03:30:00,
2013-04-20 23:35:00,45.2,40.0,30.16,NW,309,0.0,0.0,82,0.00,,CLR,0.00,VWS V14.00,2013-04-21 03:35:00,
2013-04-20 23:40:00,45.0,39.8,30.16,NW,309,0.0,0.0,82,0.00,,CLR,0.00,VWS V14.00,2013-04-21 03:40:00,
2013-04-20 23:45:00,44.8,40.0,30.16,NW,309,0.0,0.0,83,0.00,,CLR,0.00,VWS V14.00,2013-04-21 03:45:00,
2013-04-20 23:50:00,44.6,39.8,30.16,NW,309,0.0,1.0,83,0.00,,CLR,0.00,VWS V14.00,2013-04-21 03:50:00,
2013-04-20 23:55:00,44.5,40.0,30.16,NW,309,0.0,1.0,84,0.00,,CLR,0.00,VWS V14.00,2013-04-21 03:55:00,